Northwest River Forecast Center River Conditions Summary
Enter Search Selection
  Forecast Points Only

Minutes since last post:6
Latency (Post Time - Latest Obs Time):10
Click on column header to sort on the field
#IDHSADescriptionStateCountyElevationObservation TimeStageDischargeStatus
0KIOW1PDTYAKIMA - AT KIONAWAYAKIMA4542024-02-29 19:00:005.3242110
1NFFQ2MSONF FLATHEAD - NEAR FLATHEAD BCBCBR COLUMBIA39682024-03-02 00:45:004.462690
2ALPW4RIWSNAKE - NEAR ALPINEWYLINCOLN56842024-03-03 10:30:002.7414960
3MCDQ2UnkCOLUMBIA - MICA DAMBCBR COLUMBIA24752024-03-03 18:00:002391.46123483100
4LLKW1OTXSPOKANE - AT LONGLAKEWALINCOLN12992024-03-04 07:59:001535.36 0
5CABI1OTXCLARK FORK - CABINET GORGE DAMIDBONNER22602024-03-04 07:59:002172.21 0
6NOXM8MSOCLARK FORK - NOXON RAPIDS DAMMTSANDERS22702024-03-04 07:59:002328.49 0
7QBYQ2UnkKOOTENAI - KOOTENAY L AT QUEENS BAYBCBR COLUMBIA18002024-03-04 08:00:001741.86 0
8BIRQ2UnkCOLUMBIA - AT BIRCHBANKBCBR COLUMBIA13292024-03-04 14:00:008.08286400
9ECDO3MFRELK CREEK - NEAR DRAINORDOUGLAS6892024-03-04 15:45:006.1110160
10GSVO3MFRCOW CREEK - GALESVILLE RESERVOIRORDOUGLAS18812024-03-05 07:00:001867.25 0
11BRNI1BOISNAKE - BROWNLEE DAMIDADAMS18442024-03-05 07:00:002045.19 0
12TILO3MFRS UMPQUA - AT TILLERORDOUGLAS10402024-03-05 07:30:004.2115610
13CHDW1OTXCHELAN - LAKE CHELAN DAMWACHELAN9952024-03-05 07:59:001089.69 0
14ARDQ2OTXCOLUMBIA - ARROW LAKES (HUGH KEENLEYSIDE DAM)BCBR COLUMBIA14202024-03-05 08:00:001396.37 0
15LERI1MSOLEMHI - NEAR LEMHIIDLEMHI49602024-03-05 08:45:003.892380
16ALRW1SEWNISQUALLY - ALDER RESERVOIRWAPIERCE12102024-03-05 09:00:001197.96 0
17REVQ2UnkCOLUMBIA - REVELSTOKE DAMBCBR COLUMBIA18802024-03-05 09:00:001878.6 0
18MSRW1SEWCOWLITZ - MOSSYROCK RESERVOIRWALEWIS6792024-03-05 09:00:00734.45 0
19DCDQ2UnkDUNCAN - DUNCAN DAMBCBR COLUMBIA18012024-03-05 09:00:001814.27 0
20MYDW1PQRCOWLITZ - MAYFIELD RESERVOIRWALEWIS2802024-03-05 09:00:00421.52 0
21SLCQ2UnkSLOCAN - NEAR CRESCENT VALLEYBCBR COLUMBIA14992024-03-05 09:00:002.7511800
22KADW1PDTKACHESS - KACHESS DAMWAKITTITAS22692024-03-05 09:30:002218.29 0
23SYCO3PQRJOHNSON CREEK - AT SYCAMOREORMULTNOMAH2282024-03-05 09:30:002.88890
24SSFW1SEWSF STILLAGUAMISH - AT JORDAN ROADWASNOHOMISH1952024-03-05 09:30:006.4811370
25KEDW1PDTYAKIMA - KEECHELUS LAKEWAKITTITAS24792024-03-05 09:30:002471.4 0
26BDDI1BOIBOISE - BELOW DIV DAMIDADA28002024-03-05 09:30:006.032340
27COEI1OTXCOEUR D ALENE - COEUR D ALENE LAKEIDKOOTENAI21602024-03-05 09:30:002124.9 0
28SRCW1SEWSKOKOMISH - AT CONFLUENCEWAMASON542024-03-05 09:30:0011330
29PILW1SEWPILCHUCK - NEAR SNOHOMISHWASNOHOMISH02024-03-05 09:45:0011.587090
30RCCM8MSOROCK CREEK - NEAR CLINTONMTMISSOULA35192024-03-05 09:45:005.031570
31CRPW1SEWCHEHALIS - AT PORTERWAGRAYS HARBOR242024-03-05 09:45:0043.24119610
32CSDI1BOINF PAYETTE - CASCADE DAMIDVALLEY48282024-03-05 09:45:004820.02 0
33PACI1OTXPARADISE CREEK - AT UNIVERSITY OF IDAHO AT MOSCOWIDLATAH25442024-03-05 09:45:005.02110
34WRAW1SEWWHITE - AT R STREETWAKING1152024-03-05 09:45:00111.6210930
35RIDI1PIHWILLOW CREEK - RIRIE DAMIDJEFFERSON51192024-03-05 09:45:005092.08 0
36EGCO3BOIEAGLE CREEK - ABOVE SKULL CKORBAKER28002024-03-05 09:45:000.891220
37NACW1PDTNACHES - NEAR NACHESWAYAKIMA15502024-03-05 09:45:0013.316060
38SPRO3PQRMOHAWK - NEAR SPRINGFIELDORLANE4422024-03-05 09:45:007.5620460
39COCO3PQRCLACKAMAS - NEAR OREGON CITYORCLACKAMAS152024-03-05 09:45:0026.7848700
40BCDW1SEWSKOOKUMCHUCK - NEAR BUCODAWATHURSTON1952024-03-05 09:45:00205.927210
41WGCM8MSOMF FLATHEAD - NEAR WEST GLACIERMTFLATHEAD31292024-03-05 09:45:002.199610
42TRSO3PQRTHOMAS CREEK - NEAR SCIOORLINN3802024-03-05 09:45:007.058700
43LWRI1PIHLITTLE WOOD - LITTLE WOOD DAMIDBLAINE51002024-03-05 09:45:005229.09 0
44EASI1OTXMOYIE - AT EASTPORTIDBOUNDARY26202024-03-05 09:45:004.122930
45JLKW4RIWSNAKE - JACKSON LAKE AT DAMWYTETON67282024-03-05 09:45:002.522890
46LSDW1OTXLITTLE SPOKANE - AT DARTFORDWASPOKANE15902024-03-05 09:45:003.945700
47HALI1PIHBIG WOOD - AT HAILEYIDBLAINE52952024-03-05 09:45:001.721860
48TLYO3PQRCLACKAMAS - THREE LYNXORCLACKAMAS11202024-03-05 09:45:002.9124210
49IPDI1PIHHENRYS FORK - ISLAND PARK DAMIDFREMONT63022024-03-05 09:45:006301.37 0
50CAMI1BOIWEISER - NEAR CAMBRIDGEIDWASHINGTON26602024-03-05 09:45:004.245240
51DEDI1BOIDEADWOOD - NEAR LOWMANIDVALLEY53342024-03-05 09:45:002.12 0
52AFRI1PIHSNAKE - AMERICAN FALLS RESERVOIRIDPOWER43702024-03-05 09:45:004351.04 0
53ESTO3PQRCLACKAMAS - AT ESTACADAORCLACKAMAS2972024-03-05 09:45:0013.4535650
54PRII1OTXPOTLATCH - BELOW LITTLE POTLATCHIDNEZ PERCE02024-03-05 09:45:007.427880
55NEWW1SEWNEWAUKUM - NEAR CHEHALISWALEWIS1902024-03-05 09:45:00196.1210220
56DEEO3MFRDEER CREEK - NEAR ROSEBURGORDOUGLAS6902024-03-05 09:52:007.179100
57SLKW1SEWSULTAN - SPADA LAKEWASNOHOMISH13702024-03-05 10:00:001437.82 0
58JHNO3PDTJOHN DAY - NEAR JOHN DAYORGRANT31312024-03-05 10:00:004.261980
59TRYO3PDTGRANDE RONDE - TROYORWALLOWA15862024-03-05 10:00:005.132950
60CANO3PQRMOLALLA - NEAR CANBYORCLACKAMAS942024-03-05 10:00:0013.222610
61PRWW1OTXCOLUMBIA - PRIEST RAPIDS DAMWAGRANT4602024-03-05 10:00:00486.603 0
62DONO3BOIDONNER UND BLITZEN - NR FRENCHGLENORHARNEY42602024-03-05 10:00:002.18860
63JDAO3PDTCOLUMBIA - JOHN DAY DAMORSHERMAN2682024-03-05 10:00:00264.43 0
64TRAO3PQRTRASK - TILLAMOOKORTILLAMOOK502024-03-05 10:00:009.1118930
65BUSO3BOISILVIES - NEAR BURNSORHARNEY41952024-03-05 10:00:002.982400
66SCDO3PQRSCOGGINS CREEK - SCOGGINS DAMORWASHINGTON3062024-03-05 10:00:00299.94 0
67LOPO3PQRMF WILLAMETTE - LOOKOUT POINT DAMORLANE7122024-03-05 10:00:00881.2 0
68FFXW1SEWCARBON - NEAR FAIRFAXWAPIERCE12132024-03-05 10:00:006.895068
69DGGI1PIHTETON - AB S. LEIGH CR NR DRIGGSIDTETON59532024-03-05 10:00:001.06859
70ABOM8MSOCLARK FORK - ABOVE MISSOULAMTMISSOULA31982024-03-05 10:00:002.613930
71PACW1SEWCOWLITZ - AT PACKWOODWALEWIS10482024-03-05 10:00:000.986760
72BWKI1PIHBIG WOOD - NEAR KETCHUMIDBLAINE62402024-03-05 10:00:004.91510
73MKDO3PDTMCKAY CREEK - PENDLETONORUMATILLA13332024-03-05 10:00:001298.9 0
74UBDW1SEWBAKER - UPPER BAKER LAKEWAWHATCOM3932024-03-05 10:00:00707.45 0
75ARDW1OTXENTIAT - NEAR ARDENVOIRWACHELAN15612024-03-05 10:00:001.681450
76IMNO3PDTIMNAHA - AT IMNAHAORWALLOWA19682024-03-05 10:00:002.383720
77WSRI1BOIWEISER - NEAR WEISERIDWASHINGTON22062024-03-05 10:00:005.228290
78MORW1SEWCEDAR - CHESTER MORSE LAKEWAKING15602024-03-05 10:00:001555.38 0
79IHDW1PDTSNAKE - ICE HARBOR DAMWAFRANKLIN3682024-03-05 10:00:00438.78 0
80RRHW1OTXCOLUMBIA - ROCKY REACH DAMWACHELAN7032024-03-05 10:00:00706.1 0
81CIYW1SEWCISPUS - NEAR RANDLEWALEWIS12602024-03-05 10:00:0014.488340
82NISW1SEWNISQUALLY - NEAR NATIONALWAPIERCE14502024-03-05 10:00:005.047000
83SMNI1MSOSALMON - AT SALMONIDLEMHI39112024-03-05 10:00:002.4110300
84BELM8MSOCLARK FORK - BELOW MISSOULAMTMISSOULA30842024-03-05 10:00:001.3322880
85WELW1OTXCOLUMBIA - WELLS DAMWADOUGLAS7812024-03-05 10:00:00777.62 0
86OKNW1OTXOKANOGAN - AT OROVILLEWAOKANOGAN9002024-03-05 10:00:006.182550
87HAHW1SEWGREEN - BELOW HOWARD HANSON DAMWAKING9902024-03-05 10:00:006.179610
88PITW1PDTKLICKITAT - NEAR PITTWAKLICKITAT2892024-03-05 10:00:005.726280
89LGDW1OTXSNAKE - LOWER GRANITE DAMWAWHITMAN7382024-03-05 10:00:00736.35 0
90MFNW1SEWMF NOOKSACK - NEAR DEMINGWAWHATCOM5802024-03-05 10:00:003.022560
91RSBO3MFRS UMPQUA - AT ROSEBURGORDOUGLAS4142024-03-05 10:00:003.742378
92WEII1BOISNAKE - AT WEISERIDWASHINGTON20862024-03-05 10:00:003.43106570
93MPLO3PQRSIUSLAW - NEAR MAPLETONORLANE412024-03-05 10:00:0010.1474820
94SNAW1SEWSNOHOMISH - AT SNOHOMISHWASNOHOMISH352024-03-05 10:00:0016180000
95CLFW1PDTNACHES - NEAR CLIFFDELWAYAKIMA22802024-03-05 10:00:0027.65230
96EASW1PDTYAKIMA - AT EASTONWAKITTITAS21352024-03-05 10:00:0048.13310
97NSSW1SEWSF NOOKSACK - AT SAXON BRIDGEWAWHATCOM3802024-03-05 10:00:001.715810
98LYDM8MSOKOOTENAI - LIBBY DAMMTLINCOLN24592024-03-05 10:00:002416.25 0
99WANW1OTXCOLUMBIA - WANAPUM DAMWAGRANT5702024-03-05 10:00:00568.745 0
100RISW1OTXCOLUMBIA - BLO ROCK ISLAND DAMWADOUGLAS6092024-03-05 10:00:00612.16 0
101AURO3PQRPUDDING - AT AURORAORMARION722024-03-05 10:00:0018.8741650
102HOTI1BOIBRUNEAU - NEAR HOT SPRINGSIDOWYHEE25992024-03-05 10:00:005.162150
103CGRO3PQRSF MCKENZIE - COUGAR DAMORLANE12622024-03-05 10:00:001521.12 0
104HOPI1OTXPEND OREILLE - LAKE PEND OREILLE NR HOPEIDBONNER20002024-03-05 10:00:002051.51 0
105RIGI1MSOLITTLE SALMON - AT RIGGINSIDIDAHO17602024-03-05 10:00:003.144030
106SPDI1OTXCLEARWATER - AT SPALDINGIDNEZ PERCE7702024-03-05 10:00:005.2691480
107CENW1SEWCHEHALIS - NEAR CENTRALIAWALEWIS1852024-03-05 10:00:00158.3238160
108CHJW1OTXCOLUMBIA - CHIEF JOSEPH DAMWADOUGLAS8202024-03-05 10:00:00953.9 0
109HWRI1PIHBIG LOST - AT HOWELL RANCH NEAR CHILLYIDCUSTER66222024-03-05 10:00:002.497639
110RODW1SEWSKAGIT - ROSS RESERVOIRWAWHATCOM16052024-03-05 10:00:001556.76 0
111ELWW1SEWELWHA - AT MCDONALD BRIDGE NEAR PORT ANGELESWACLALLAM2002024-03-05 10:00:0010.4112540
112PIHI1PIHPORTNEUF - AT POCATELLOIDBANNOCK44202024-03-05 10:00:005.813890
113LGRW1SEWNISQUALLY - AT LA GRANDEWAPIERCE4902024-03-05 10:00:004.3411300
114MCMW1SEWMINERAL CREEK - NEAR MINERALWALEWIS13402024-03-05 10:00:009.623700
115MCMO3PQRS YAMHILL - AT MCMINNVILLEORYAMHILL622024-03-05 10:00:0030.2562790
116DWRI1MSONF CLEARWATER - DWORSHAK DAMIDCLEARWATER9952024-03-05 10:00:001530.72 0
117RDLO3MFRCOW CREEK - NEAR RIDDLEORDOUGLAS7232024-03-05 10:00:004.721650
118UNDW1PDTWHITE SALMON - NEAR UNDERWOODWAKLICKITAT1132024-03-05 10:00:004.7415760
119HHDW1SEWGREEN - HOWARD HANSON DAMWAKING12062024-03-05 10:00:001108.33 0
120TLRW1SEWSF TOLT - TOLT RESERVOIRWAKING17652024-03-05 10:00:001760.12 0
121PDTO3PDTUMATILLA - AT PENDLETONORUMATILLA10502024-03-05 10:00:005.978980
122FOSO3PQRSOUTH SANTIAM - FOSTER DAMORLINN5502024-03-05 10:00:00614.98 0
123SWRM8MSOSWAN - NEAR BIGFORKMTLAKE30632024-03-05 10:00:002.384710
124GPRO3PQRMIDDLE SANTIAM - GREEN PETER DAMORLINN10152024-03-05 10:00:00969.15 0
125SELI1MSOSELWAY - NEAR LOWELLIDIDAHO15402024-03-05 10:00:004.1317570
126LMNW1UnkSNAKE - LOWER MONUMENTAL DAMWAWALLA WALLA4592024-03-05 10:00:00538.22 0
127MMRW1SEWWHITE - AT MUD MOUNTAIN DAMWAKING13302024-03-05 10:00:00923.56 0
128ALFW1OTXPEND OREILLE - ALBENI FALLS DAMWAPEND OREILLE20502024-03-05 10:00:00182000
129KBDM8MSOKOOTENAI - BELOW LIBBY DAMMTLINCOLN21002024-03-05 10:00:0017.8140270
130LOCI1MSOLOCHSA - NEAR LOWELLIDIDAHO14532024-03-05 10:00:002.9513330
131SCOO3PQRSCOGGINS CREEK - NEAR GASTONORWASHINGTON1572024-03-05 10:00:006.381870
132PARI1BOIBOISE - NEAR PARMAIDCANYON21962024-03-05 10:00:008.589130
133WYDW1SEWWYNOOCHEE - WYNOOCHEE DAMWAGRAYS HARBOR8102024-03-05 10:00:00773.28 0
134TIDO3PQRALSEA - NEAR TIDEWATERORLINCOLN482024-03-05 10:00:007.8445690
135PARW1PDTYAKIMA - NEAR PARKERWAYAKIMA8892024-03-05 10:00:003.925300
136SKOW1SEWNF SKOKOMISH - BELOW STAIRCASE RAPIDS NEAR HOODSPORTWAMASON7622024-03-05 10:00:003.733780
137PHIO3PQRMARYS - NEAR PHILOMATHORBENTON2242024-03-05 10:00:0014.5818481
138LGSW1UnkSNAKE - LITTLE GOOSE DAMWAWHITMAN7022024-03-05 10:00:00636.91 0
139CGMW1SEWCHEHALIS - NEAR GRAND MOUNDWATHURSTON1242024-03-05 10:00:00135.7575040
140CWMO3MFRCOW CREEK - NEAR GLENDALEORDOUGLAS10102024-03-05 10:00:002.736250
141CTAW1SEWSKOOKUMCHUCK - AT CENTRALIAWALEWIS1002024-03-05 10:00:00180.5312280
142TDAO3PDTCOLUMBIA - THE DALLES DAMORWASCO802024-03-05 10:00:00158.79 0
143GCDW1OTXCOLUMBIA - GRAND COULEE DAMWAGRANT17002024-03-05 10:00:001286.8 0
144POWO3MFRSF COQUILLE - AT POWERSORCOOS2202024-03-05 10:00:005.2327670
145CORO3PQRWILLAMETTE - AT CORVALLISORBENTON1922024-03-05 10:15:0018.03252430
146STII1BOISF CLEARWATER - AT STITESIDIDAHO13002024-03-05 10:15:003.758500
147SATI1OTXST MARIES - NEAR SANTAIDBENEWAH21722024-03-05 10:15:005.314230
148SATW1SEWSATSOP - NEAR SATSOPWAGRAYS HARBOR212024-03-05 10:15:0031.6138890
149PATW1OTXMETHOW - NEAR PATEROSWAOKANOGAN9002024-03-05 10:15:002.357280
150WLAO3PQRS YAMHILL - NEAR WILLAMINAORPOLK2362024-03-05 10:15:005.1916000
151ORFI1MSOCLEARWATER - AT OROFINOIDCLEARWATER9912024-03-05 10:15:004.9159020
152MFDO3MFRBEAR CREEK - AT MEDFORDORJACKSON13422024-03-05 10:15:003.221550
153BERO3BOIMALHEUR - AGENCY VALLEY DAMORMALHEUR33052024-03-05 10:15:003328.53 0
154CLUW1PDTCLE ELUM - CLE ELUM LAKEWAKITTITAS22402024-03-05 10:15:002166.48 0
155WCHW1SEWSAUK - ABOVE WHITE CHUCKWASNOHOMISH9302024-03-05 10:15:003.056110
156BEUO3BOINF MALHEUR - AT BEULAHORMALHEUR32702024-03-05 10:15:001.1730
157ORCO3PQRWILLAMETTE - BL FALLS AT OR CITYORCLACKAMAS102024-03-05 10:15:0014.77 0
158BFTI1PIHSNAKE - NEAR BLACKFOOTIDBINGHAM44002024-03-05 10:15:002.8621910
159MFPI1BOIMF PAYETTE - NEAR CROUCHIDBOISE30402024-03-05 10:15:005.952520
160ISSW1SEWISSAQUAH CREEK - NEAR MOUTHWAKING362024-03-05 10:15:005.062000
161WFBM8MSOWF BITTERROOT - NEAR CONNERMTRAVALLI45812024-03-05 10:15:001.11530
162BFEI1OTXKOOTENAI - AT BONNERS FERRYIDBOUNDARY17002024-03-05 10:15:0045.48 0
163WSNO3MFRS UMPQUA - NEAR WINSTONORDOUGLAS4632024-03-05 10:15:0010.2697960
164LAUW1OTXKETTLE - AT LAURIERWAFERRY14262024-03-05 10:15:004.7517990
165WTHW1OTXMETHOW - AT WINTHROPWAOKANOGAN17182024-03-05 10:15:0010.444480
166GARW1SEWSF SNOQUALMIE - NEAR GARCIAWAKING14482024-03-05 10:15:0011.052330
167TANW1SEWMF SNOQUALMIE - NEAR TANNERWAKING7802024-03-05 10:15:002.838290
168CRNW1SEWSNOQUALMIE - NEAR CARNATIONWAKING602024-03-05 10:15:0046.4930750
169TEAI1PIHTETON - NEAR ST. ANTHONYIDFREMONT49702024-03-05 10:15:001.933789
170FSSO3PQRNEHALEM - FOSSORTILLAMOOK332024-03-05 10:15:008.8167920
171WRMO3PDTMALHEUR - WARM SPRINGS DAMORMALHEUR33902024-03-05 10:15:003395.43 0
172FRYW1OTXKETTLE - NEAR FERRYWAFERRY18372024-03-05 10:15:0010.376240
173PESW1OTXWENATCHEE - AT PESHASTINWACHELAN10282024-03-05 10:15:003.1315210
174TOPI1PIHPORTNEUF - AT TOPAZIDBANNOCK49182024-03-05 10:15:002.731738
175MYKO3PDTMCKAY CREEK - NEAR PILOT ROCKORUMATILLA13432024-03-05 10:15:003.742540
176PRDW1OTXCOLUMBIA - BLO PRIEST RAPIDS DAMWAGRANT3882024-03-05 10:15:0011.36736230
177TOLW1SEWTOLT - NEAR CARNATIONWAKING3482024-03-05 10:15:005.786290
178TONW1OTXOKANOGAN - NEAR TONASKETWAOKANOGAN8612024-03-05 10:15:004.779710
179PRTI1OTXPRIEST - NEAR PRIEST RIVERIDBONNER20902024-03-05 10:15:003.2522380
180PULW1OTXSF PALOUSE - AT PULLMANWAWHITMAN23262024-03-05 10:15:002.1730
181ANAW1OTXSNAKE - NEAR ANATONEWAASOTIN8072024-03-05 10:15:006.41288610
182PRCM8MSOPROSPECT CREEK - AT THOMPSON FALLSMTSANDERS23822024-03-05 10:15:001.531430
183PRCI1OTXNF COEUR D ALENE - NEAR PRICHARDIDSHOSHONE24852024-03-05 10:15:002.68420
184LGNO3PDTGRANDE RONDE - NEAR PERRYORUNION29502024-03-05 10:15:002.394840
185CTLI1OTXCOEUR D ALENE - AT CATALDOIDKOOTENAI21002024-03-05 10:15:0035.4731210
186SIFI1PIHSNAKE - AB EAGLE ROCK NR IDAHO FALLSIDBONNEVILLE47302024-03-05 10:15:005.9727420
187SHYI1PIHSNAKE - NEAR SHELLEYIDBINGHAM45992024-03-05 10:15:005.4524870
188GIBO3PDTUMATILLA - NEAR GIBBONORUMATILLA18552024-03-05 10:15:003.872940
189MROW1SEWSNOHOMISH - NEAR MONROEWASNOHOMISH132024-03-05 10:15:003.7790240
190LEOI1OTXKOOTENAI - AT LEONIAIDBOUNDARY17902024-03-05 10:15:0011.3361660
191PWDO3BOIPOWDER - AT BAKERORBAKER34402024-03-05 10:15:001.48370
192DARM8MSOBITTERROOT - NEAR DARBYMTRAVALLI39422024-03-05 10:15:001.431980
193NRKW1SEWNOOKSACK - AT CEDARVILLEWAWHATCOM02024-03-05 10:15:00139.6824600
194EKTO3MFRUMPQUA - NEAR ELKTONORDOUGLAS902024-03-05 10:15:0011.18195360
195WARO3BOIMALHEUR - BLO WARM SPRS RES NR RIVERSIDEORMALHEUR33052024-03-05 10:15:003.3430
196SNAI1PIHSNAKE - AT BLACKFOOTIDBINGHAM44902024-03-05 10:15:004.8222220
197SRMO3PQRSANDY - NEAR MARMOTORCLACKAMAS7302024-03-05 10:15:00691.9215440
198RNTW1SEWCEDAR - AT RENTONWAKING152024-03-05 10:15:009.28510
199CHEI1PIHFALL RIVER - NEAR CHESTERIDFREMONT50522024-03-05 10:15:002.274469
200REXI1PIHHENRYS FORK - AT REXBURGIDMADISON48062024-03-05 10:15:004.418010
201ARGW1SEWNF STILLAGUAMISH - NEAR ARLINGTONWASNOHOMISH892024-03-05 10:15:003.6419050
202LSTO3PDTLOSTINE - NR LOSTINEORWALLOWA36502024-03-05 10:15:001.96578
203DRSW1SEWDUNGENESS - NEAR SEQUIMWACLALLAM5692024-03-05 10:15:002.972240
204UMTW1PDTYAKIMA - AT UMTANUMWAKITTITAS13002024-03-05 10:15:0031.3615470
205DRMM8MSOCLARK FORK - NR DRUMMONDMTGRANITE33792024-03-05 10:15:003.095740
206REEO3PQRUMPQUA - AT REEDSPORTORDOUGLAS02024-03-05 10:15:0010.46 0
207NFNW1SEWNF NOOKSACK - NEAR GLACIERWAWHATCOM12452024-03-05 10:15:002.435108
208SNQW1SEWNF SNOQUALMIE - NEAR SNOQUALMIE FALLSWAKING11302024-03-05 10:15:003.143800
209LUCI1BOIBOISE - LUCKY PEAK DAMIDADA28402024-03-05 10:15:002987.1 0
210SWAI1BOISNAKE - BELOW SWAN FALLSIDADA22712024-03-05 10:17:0020.9265500
211MYPO3MFRSF COQUILLE - AT MYRTLE POINTORCOOS602024-03-05 10:20:0022.7469230
212KTFW1OTXCOLVILLE - AT KETTLE FALLSWASTEVENS14002024-03-05 10:20:007.146170
213HODO3PQRHOOD - NEAR TUCKER BRIDGEORHOOD RIVER3832024-03-05 10:30:004.9213440
214MADO3BOIMALHEUR - NEAR DREWSEYORHARNEY34792024-03-05 10:30:003.842910
215NSPW1SEWNF SKOKOMISH - NEAR POTLATCHWAMASON632024-03-05 10:30:003.534170
216SALW4RIWSALT - ABV PALISADES RES NR ETNAWYLINCOLN56762024-03-05 10:30:001.854470
217NKSW1SEWNOOKSACK - AT FERNDALEWAWHATCOM52024-03-05 10:30:006.5538760
218OGCN2LKNOWYHEE - NR GOLD CKNVELKO61192024-03-05 10:30:000.2730
219VALO3BOIMALHEUR - NEAR VALEORMALHEUR22202024-03-05 10:30:0011.221370
220HOPW1OTXPALOUSE - AT HOOPERWAWHITMAN10412024-03-05 10:30:006.8912270
221MAYW1SEWCOWLITZ - BELOW MAYFIELD DAMWALEWIS2272024-03-05 10:30:0011.5251370
222BFKW4RIWBUFFALO FK - AB LAVA CR NR MORANWYTETON67732024-03-05 10:30:002.9411879
223SJMI1OTXST JOE - AT ST MARIESIDBENEWAH21002024-03-05 10:30:0025.18 0
224COKW1SEWCOWLITZ - NEAR KOSMOSWALEWIS7802024-03-05 10:30:0067.6540600
225SQUW1SEWSNOQUALMIE - NEAR SNOQUALMIEWAKING1202024-03-05 10:30:005.2620730
226JKSW4RIWSNAKE - NEAR JACKSONWYTETON59502024-03-05 10:30:002.2310690
227MORI1BOIMORES CREEK - NR ARROWROCK DAMIDADA31202024-03-05 10:30:002.751800
228OWYO3BOIOWYHEE - OWYHEE DAMORMALHEUR24002024-03-05 10:30:002.082500
229NASW1PQRNASELLE - NEAR NASELLEWAPACIFIC242024-03-05 10:30:006.598680
230PLOI1OTXPALOUSE - NEAR POTLATCHIDLATAH24552024-03-05 10:30:007.594140
231HEII1PIHSNAKE - NEAR HEISEIDBONNEVILLE50152024-03-05 10:30:001.4612560
232STHW1OTXSTEHEKIN - AT STEHEKINWACHELAN10992024-03-05 10:30:0019.285160
233UMAO3PDTUMATILLA - NEAR UMATILLAORUMATILLA3302024-03-05 10:30:003.889220
234SHAW1SEWBAKER - AT CONCRETEWASKAGIT1902024-03-05 10:30:003.0214620
235DLGM8MSOCLARK FORK - AT DEER LODGEMTPOWELL45002024-03-05 10:30:002.672109
236CLDI1OTXST JOE - AT CALDERIDSHOSHONE20962024-03-05 10:30:007.0115820
237CALW1SEWCALAWAH - NEAR FORKSWACLALLAM2102024-03-05 10:30:004.8911860
238HCDI1PDTSNAKE - AT HELLS CANYON DAMIDADAMS14002024-03-05 10:30:0066.91190680
239PRLI1BOISF PAYETTE - AT LOWMANIDBOISE37902024-03-05 10:30:003.253340
240SKBW1SEWNF SKOKOMISH - NEAR LOWER CUSHMAN DAM NEAR POTLATCHWAMASON3282024-03-05 10:30:002.072230
241TCHW1PDTWALLA WALLA - NEAR TOUCHETWAWALLA WALLA4052024-03-05 10:30:006.3412060
242SERO3PDTJOHN DAY - AT SERVICE CKORWHEELER16322024-03-05 10:30:005.7332530
243TNAW1PDTTEANAWAY - BELOW FORKSWAKITTITAS23002024-03-05 10:30:0011.433620
244SILO3PQRSILETZ - AT SILETZORLINCOLN1022024-03-05 10:30:006.3628840
245CHTO3MFRCHETCO - NEAR BROOKINGSORCURRY502024-03-05 10:30:006.7878350
246TRBO3PQRMCKENZIE - BELOW TRAIL BRIDGE DAMORLINN19802024-03-05 10:30:006.9812260
247LRWW1PQRLEWIS - AT WOODLANDWACLARK102024-03-05 10:30:0011.4 0
248DORO3PQRROW - DORENA DAMORLANE8202024-03-05 10:30:004.1312050
249GLBW1SEWSKYKOMISH - NEAR GOLD BARWASNOHOMISH2092024-03-05 10:30:006.4724730
250KERM8MSOFLATHEAD - SELI’Š KSANKA QLISPE’ DAMMTLAKE27302024-03-05 10:30:002885.88 0
251LNDW1SEWCEDAR - NEAR LANDSBURGWAKING5662024-03-05 10:30:002.077590
252HLKW1PDTYAKIMA - NEAR HORLICKWAKITTITAS17002024-03-05 10:30:0028.9311600
253WNRO3MFRN UMPQUA - AT WINCHESTERORDOUGLAS3722024-03-05 10:30:005.9472430
254NITW1OTXSIMILKAMEEN - NEAR NIGHTHAWKWAOKANOGAN11382024-03-05 10:30:002.926010
255HRSI1BOIPAYETTE - NEAR HORSESHOE BENDIDBOISE26262024-03-05 10:30:003.4512470
256CASW1PQRCOWLITZ - AT CASTLE ROCKWACOWLITZ202024-03-05 10:30:0035.51110830
257PACW4RIWPACIFIC CREEK - AT MORANWYTETON67202024-03-05 10:30:005.042139
258FLGW4RIWSNAKE - AB JACKSON L AT FLAGG RWYTETON68022024-03-05 10:30:002.764040
259PERM8MSOFLATHEAD - AT PERMAMTSANDERS25692024-03-05 10:30:008.5776770
260TLMO3PQRWILSON - NEAR TILLAMOOKORTILLAMOOK422024-03-05 10:30:005.6318200
261FRMO3PQRTUALATIN - AT FARMINGTONORWASHINGTON1002024-03-05 10:30:0026.2748301
262BRFI1BOISF BOISE - NR FEATHERVILLEIDELMORE42202024-03-05 10:30:001.92700
263BTSI1BOIBOISE - NR TWIN SPRINGSIDADA32562024-03-05 10:30:005.895600
264AGNO3MFRROGUE - NEAR AGNESORCURRY1132024-03-05 10:30:007.46121950
265COTO3PQRCOAST FORK WILLAMETTE - COTTAGE GROVE DAMORLANE8002024-03-05 10:30:004.997530
266MLBO3MFRBIG BUTTE CREEK - NEAR MCLEODORJACKSON15262024-03-05 10:30:004.695880
267DOTW1SEWCHEHALIS - NEAR DOTYWALEWIS3022024-03-05 10:30:00308.658870
268ELKO3MFRELK CREEK - NEAR TRAILORJACKSON14552024-03-05 10:30:004.653810
269AMFI1PIHSNAKE - AT AMERICAN FALLS DAMIDPOWER42122024-03-05 10:30:002.052960
270ARAI1BOISF BOISE - ANDERSON RANCH DAMIDELMORE38802024-03-05 10:30:004183.41 0
271PALI1PIHSNAKE - NEAR IRWINIDBONNEVILLE53532024-03-05 10:30:004.358620
272SCRO3MFRSTEAMBOAT CREEK - NEAR GLIDEORDOUGLAS11292024-03-05 10:30:002.6310460
273PRPI1BOIPAYETTE - NEAR PAYETTEIDPAYETTE21382024-03-05 10:30:005.0417720
274MONO3PDTNF JOHN DAY - AT MONUMENTORGRANT19602024-03-05 10:30:005.2917450
275GREW4RIWGREYS - AB RES NR ALPINEWYLINCOLN57202024-03-05 10:30:001.161859
276KELW1PQRCOWLITZ - AT KELSOWACOWLITZ22024-03-05 10:34:4814.1 0
277PRTO3PQRWILLAMETTE - AT PORTLANDORMULTNOMAH22024-03-05 10:35:005.29 0
278HCRO3PQRMF WILLAMETTE - HILLS CREEK DAMORLANE15442024-03-05 10:35:002.644390
279WAUO3PQRCOLUMBIA - AT WAUNAORCLATSOP12024-03-05 10:36:004.52 0
280ASTO3PQRTONGUE POINT TIDE GAGEORCLATSOP22024-03-05 10:36:004.91 0
281CHAO3MFRCHARLESTON TIDEORCOOS02024-03-05 10:36:005.63 0
282KLMW1PQRCOLUMBIA RIV AT KALAMAWACOWLITZ02024-03-05 10:36:004.96 0
283LOPW1PQRCOLUMBIA - AT LONGVIEWWACOWLITZ12024-03-05 10:36:005.04 0
284SHNO3PQRCOLUMBIA - AT ST HELENSORCOLUMBIA12024-03-05 10:36:004.76 0
285SKAW1PQRCOLUMBIA - AT SKAMOKAWAWAWAHKIAKUM12024-03-05 10:36:004.16 0
286MNRO3PQRLONG TOM - AT MONROEORBENTON2712024-03-05 10:40:006.9126950
287BLUO3PQRBLUE - BLUE RESERVOIRORLANE13572024-03-05 10:40:004.114110
288SUVO3PQRLUCKIAMUTE - NEAR SUVERORPOLK1722024-03-05 10:40:0018.4630750
289FRNO3PQRLONG TOM - FERN RIDGE DAMORLANE3742024-03-05 10:40:005.0315950
290OMCN2LKNOWYHEE - NEAR MTN CITYNVELKO55602024-03-05 10:40:004.31698
291WSLO3PQRTUALATIN - AT WEST LINNORCLACKAMAS852024-03-05 10:40:009.1256548
292VAPW1PQRCOLUMBIA - AT VANCOUVER POPWACLARK22024-03-05 10:42:004.99 0
293ALBO3PQRWILLAMETTE - AT ALBANYORLINN1672024-03-05 10:45:0011.99292180
294TILW1SEWTILTON - NEAR CINEBARWALEWIS6002024-03-05 10:45:004.299180
295KRBO3MFRILLINOIS - AT KERBYORJOSEPHINE12102024-03-05 10:45:0010.7246323
296SFCM8MSOSF FLATHEAD - NR COLUMBIA FALLSMTFLATHEAD02024-03-05 10:45:005.0416340
297MNSW1SEWWYNOOCHEE - NEAR MONTESANOWAGRAYS HARBOR402024-03-05 10:45:0030.4323670
298PLNM8MSOCLARK FORK - NEAR PLAINSMTSANDERS24492024-03-05 10:45:004.58105270
299GOSO3PQRCOAST FORK WILLAMETTE - NEAR GOSHENORLANE4742024-03-05 10:45:006.3239790
300WODI1PIHLITTLE WOOD - NEAR CAREYIDBLAINE49912024-03-05 10:45:000.9859
301MLKW1PDTMILL CREEK - NR WALLA WALLAWAWALLA WALLA19962024-03-05 10:45:0013.841220
302MYNO3MFRNF COQUILLE - NEAR MYRTLE POINTORCOOS22024-03-05 10:45:0024.3444990
303MVEW1SEWSKAGIT - NEAR MT VERNONWASKAGIT02024-03-05 10:45:0012.91110260
304GRAO3MFRROGUE - AT GRANTS PASSORJOSEPHINE8802024-03-05 10:45:004.2951220
305THRM8MSOTHOMPSON - NEAR THOMPSON FALLSMTSANDERS24292024-03-05 10:45:002.851760
306MODO3PDTDESCHUTES - AT MOODY NR BIGGSORWASCO1672024-03-05 10:45:003.4867610
307SNYI1BOISNAKE - AT NYSSAIDCANYON51702024-03-05 10:45:005.3480780
308BCLO3PQRNORTH SANTIAM - AT NIAGARAORLINN10942024-03-05 10:45:003.6318060
309AUBW1SEWGREEN - NEAR AUBURNWAKING702024-03-05 10:45:0058.714680
310DSRW1SEWDESCHUTES - NEAR RAINIERWATHURSTON3492024-03-05 10:45:004.383560
311ARWO3MFRAPPLEGATE - NEAR WILDERVILLEORJOSEPHINE9502024-03-05 10:45:003.9113740
312SFLN2PIHSALMON FALLS CREEK - NR SAN JACINTONVELKO02024-03-05 10:45:005.71950
313GORW1SEWSKAGIT - AT NEWHALEMWAWHATCOM4022024-03-05 10:45:0083.1827360
314SPOW1OTXSPOKANE - AT SPOKANEWASPOKANE16962024-03-05 10:45:0021.6894950
315CFMM8MSOFLATHEAD - AT COLUMBIA FALLSMTFLATHEAD29782024-03-05 10:45:003.6334960
316EGLO3MFRROGUE - NEAR EAGLE POINTORJACKSON12702024-03-05 10:45:004.3732540
317VICM8MSOBITTERROOT - NEAR VICTORMTRAVALLI33302024-03-05 10:45:004.753800
318VIDO3PQRMCKENZIE - NEAR VIDAORLANE8562024-03-05 10:45:002.6550090
319SPEW1SEWSOUTH PRAIRIE - AT SOUTH PRAIRIEWAPIERCE4302024-03-05 10:45:0024.811260
320SMRW1SEWSAMISH - NEAR BURLINGTONWASKAGIT02024-03-05 10:45:006.574670
321PORI1OTXKOOTENAI - AT PORTHILLIDBOUNDARY02024-03-05 10:45:0042.82 0
322ISLI1PIHHENRYS FORK - NEAR ISLAND PARK DAMIDFREMONT62252024-03-05 10:45:002.884140
323PUYW1SEWPUYALLUP - AT PUYALLUPWAPIERCE502024-03-05 10:45:0012.2830130
324OKMW1OTXOKANOGAN - AT MALOTTWAOKANOGAN7832024-03-05 10:45:003.3912750
325WTLO3PQRSOUTH SANTIAM - AT WATERLOOORLINN3702024-03-05 10:45:005.0441900
326RYGO3MFRROGUE - AT RAYGOLDORJACKSON11222024-03-05 10:45:003.344980
327SAKW1SEWSAUK - NEAR SAUKWASKAGIT2662024-03-05 10:45:004.1126250
328HAGW1OTXHANGMAN CREEK - AT SPOKANEWASPOKANE17172024-03-05 10:45:003.355320
329APRO3MFRAPPLEGATE - NEAR APPLEGATEORJACKSON12852024-03-05 10:45:002.074360
330DRBI1BOIDEADWOOD - BELOW DEADWOOD RESIDVALLEY51922024-03-05 10:45:002.12560
331EMMI1BOIPAYETTE - NEAR EMMETTIDGEM24002024-03-05 10:45:002.8616100
332SRLM8MSOSTILLWATER - NEAR LAWRENCE PARKMTFLATHEAD29532024-03-05 10:45:002.951168
333MCZO3PQRMCKENZIE - NEAR WALTERVILLEORLANE6002024-03-05 10:45:004.8158920
334SRGM8MSOCLARK FORK - AT ST REGISMTMINERAL26002024-03-05 10:45:005.6131700
335HARO3PQRWILLAMETTE - AT HARRISBURGORLINN2882024-03-05 10:45:006.32158670
336BEAO3PQRNESTUCCA - NEAR BEAVERORTILLAMOOK432024-03-05 10:45:007.5721920
337MEHO3PQRNORTH SANTIAM - AT MEHAMAORMARION6022024-03-05 10:45:004.6833430
338ENVI1OTXNF COEUR D ALENE - AT ENAVILLEIDSHOSHONE21002024-03-05 10:45:0060.5725170
339SRMW1SEWSKAGIT - AT MARBLEMOUNTWASKAGIT3052024-03-05 10:45:003.4534390
340SNDO3PQRSANDY - SANDYORCLACKAMAS2402024-03-05 10:45:0010.1828670
341RAWW1SEWCOWLITZ - AT RANDLEWALEWIS8902024-03-05 10:45:006.122450
342MKNW1SEWNISQUALLY - AT MCKENNAWATHURSTON2852024-03-05 10:45:002.3113350
343THNW1SEWTHUNDER CREEK - NEAR NEWHALEMWAWHATCOM12202024-03-05 10:45:005.83688
344TOTW1PQRTOUTLE - AT TOWER ROAD NEAR SILVER LAKEWACOWLITZ1702024-03-05 10:45:00122.7230070
345STRM8MSOST. REGIS - NEAR ST. REGISMTMINERAL26452024-03-05 10:45:002.492610
346DETO3PQRNORTH SANTIAM - DETROIT DAMORMARION15702024-03-05 10:45:001517.822986740
347WHRM8MSOWHITEFISH - NEAR KALISPELLMTFLATHEAD29702024-03-05 10:45:001.73970
348BITM8MSOBITTERROOT - NEAR MISSOULAMTMISSOULA31102024-03-05 10:45:003.158520
349CONW1SEWSKAGIT - NEAR CONCRETEWASKAGIT1302024-03-05 10:45:0016.3495280
350FISM8MSOFISHER - NEAR LIBBYMTFLATHEAD21342024-03-05 10:45:003.62860
351COQO3MFRCOQUILLE - AT COQUILLEORCOOS232024-03-05 10:45:0018.52 1
352WILW1PQRWILLAPA - NEAR WILLAPAWAPACIFIC42024-03-05 10:45:007.7914480
353MIDI1BOIMF SALMON - MIDDLE FORK LODGEIDCUSTER44802024-03-05 10:45:001.484630
354SSUW1SEWSF SKOKOMISH - NEAR UNIONWAMASON1032024-03-05 10:45:001.227120
355DLLO3PQRTUALATIN - NEAR DILLEYORWASHINGTON1472024-03-05 10:45:0016.3310063
356TRYM8MSOYAAK - NEAR TROYMTLINCOLN18392024-03-05 10:45:003.975460
357BONM8MSOBLACKFOOT - NEAR BONNERMTMISSOULA33452024-03-05 10:45:001.945100
358JFFO3PQRSANTIAM - AT JEFFERSONORMARION2202024-03-05 10:45:006.49115080
359ORTW1SEWPUYALLUP - NEAR ORTINGWAPIERCE3532024-03-05 10:45:005.355000
360BIGI1BOIBOISE - AT GLENWOOD BRIDGEIDADA26002024-03-05 10:45:003.392870
361WHBI1MSOSALMON - AT WHITEBIRDIDIDAHO14132024-03-05 10:45:0012.9546940
362SLTW1SEWSULTAN - NEAR SULTANWASNOHOMISH2902024-03-05 10:45:007.1615740
363FCFM8MSONF FLATHEAD - NEAR COLUMBIA FALLSMTFLATHEAD31452024-03-05 10:45:002.149780
364ANTI1PIHHENRYS FORK - AT ST. ANTHONYIDFREMONT49512024-03-05 10:45:003.7715570
365BWMI1PIHBIG WOOD - BELOW MAGIC DAM NEAR RICHFIELDIDBLAINE46622024-03-05 10:45:001.96110
366SLMO3PQRWILLAMETTE - AT SALEMORMARION1062024-03-05 10:50:0014.38486950
367EUGO3PQRWILLAMETTE - AT EUGENEORLANE3902024-03-05 10:50:0012.273320
368VENO3PQRNEHALEM - NR VERNONIAORCOLUMBIA6402024-03-05 10:50:005.975570
369JASO3PQRMF WILLAMETTE - AT JASPERORLANE5132024-03-05 10:50:003.9836450
370FPOM8MSOFLATHEAD - NEAR POLSONMTLAKE26932024-03-05 10:50:005.6275960
371OCUO3PQRWILLAMETTE - AB FALLS AT OR CITYORCLACKAMAS502024-03-05 10:50:0059.38 0
372APLO3MFRAPPLEGATE - APPLEGATE RESERVOIRORJACKSON19902024-03-05 10:50:001935.8 0
373LSMO3PQRLITTLE N SANTIAM - NEAR MEHAMAORMARION6552024-03-05 10:50:004.68290
374FALO3PQRFALL CREEK - FALL CREEK RESERVOIRORLANE8342024-03-05 10:50:00703.5 0
375ARLW1SEWSTILLAGUAMISH - NEAR ARLINGTONWASNOHOMISH652024-03-05 10:50:003.443980
376CBAO3PQRCOLUMBIA - AT PORT WESTWARD NR QUINCYORCOLUMBIA-12024-03-05 10:50:004.35 0
377MAKI1PIHBIG LOST - BLO MACKAY RESIDCUSTER594600
378SHDW1SEWBAKER - LAKE SHANNONWASKAGIT156 0
379CLEW1PDTCLE ELUM - NEAR ROSLYNWAKITTITAS2240 0
380SMKQ2UnkSIMILKAMEEN - NEAR HEDLEYBCBR COLUMBIA0800
381KEEW1PDTYAKIMA - NEAR MARTINWAKITTITAS2479 0
382RIMW1PDTTIETON - AT TIETON DAMWAYAKIMA2926 0
383OWCO3BOIOWYHEE CANAL AT OWYHEE DAMORMALHEUR2500 0
384GVZW4RIWGROS VENTRE - AT ZENITHWYTETON626000
385KACW1PDTKACHESS - NEAR EASTONWAKITTITAS2269 0
386WLSO3PQRWILLAMETTE - AT WILSONVILLEORCLACKAMAS5031000
387SKRW1SEWSKOOKUMCHUCK - AT SKOOKUMCHUCK RESERVOIRWALEWIS480 0
388BONO3PQRCOLUMBIA - BONNEVILLE DAMORMULTNOMAH62 0
389BUMW1PDTBUMPING - BELOW BUMPING DAMWAYAKIMA34411.2 0
390ARKI1BOIBOISE - ARROWROCK DAMIDELMORE3275 0














Loading Hydrograph...